Time,TemperatureF,DewpointF,PressureIn,WindDirection,WindDirectionDegrees,WindSpeedMPH,WindSpeedGustMPH,Humidity,HourlyPrecipIn,Conditions,Clouds,dailyrainin,SolarRadiationWatts/m^2,SoftwareType,DateUTC
2013-01-26 00:07:00,49.6,48.0,30.06,North,349,0.0,0.0,95,0.00,,,0.00,0,weatherlink.com 1.10,2013-01-26 08:07:00,
2013-01-26 00:22:00,49.6,48.0,30.05,North,349,0.0,0.0,95,0.00,,,0.00,0,weatherlink.com 1.10,2013-01-26 08:22:00,
2013-01-26 00:37:00,49.6,48.0,30.05,North,349,0.0,1.0,95,0.00,,,0.00,0,weatherlink.com 1.10,2013-01-26 08:37:00,
2013-01-26 00:52:00,48.8,47.0,30.05,North,349,0.0,0.0,94,0.00,,,0.00,0,weatherlink.com 1.10,2013-01-26 08:52:00,
2013-01-26 01:07:00,48.4,47.0,30.04,North,349,1.0,1.0,95,0.00,,,0.00,0,weatherlink.com 1.10,2013-01-26 09:07:00,
2013-01-26 01:22:00,48.5,47.0,30.04,North,349,1.0,2.0,95,0.00,,,0.00,0,weatherlink.com 1.10,2013-01-26 09:22:00,
2013-01-26 01:37:00,48.1,47.0,30.04,North,349,0.0,2.0,95,0.00,,,0.00,0,weatherlink.com 1.10,2013-01-26 09:37:00,
2013-01-26 01:52:00,48.1,47.0,30.04,North,349,0.0,0.0,95,0.00,,,0.00,0,weatherlink.com 1.10,2013-01-26 09:52:00,
2013-01-26 02:07:00,47.8,47.0,30.04,North,349,0.0,1.0,96,0.00,,,0.00,0,weatherlink.com 1.10,2013-01-26 10:07:00,
2013-01-26 02:22:00,47.5,47.0,30.04,North,349,0.0,0.0,96,0.00,,,0.00,0,weatherlink.com 1.10,2013-01-26 10:22:00,
2013-01-26 02:37:00,46.7,46.0,30.04,North,349,2.0,3.0,96,0.00,,,0.00,0,weatherlink.com 1.10,2013-01-26 10:37:00,
2013-01-26 02:52:00,47.5,47.0,30.04,South,175,3.0,3.0,96,0.00,,,0.00,0,weatherlink.com 1.10,2013-01-26 10:52:00,
2013-01-26 03:07:00,47.3,47.0,30.03,South,174,3.0,3.0,97,0.00,,,0.00,0,weatherlink.com 1.10,2013-01-26 11:07:00,
2013-01-26 03:22:00,47.1,46.0,30.03,South,169,2.0,3.0,97,0.00,,,0.00,0,weatherlink.com 1.10,2013-01-26 11:22:00,
2013-01-26 03:37:00,47.6,47.0,30.03,SSE,167,2.0,4.0,97,0.00,,,0.00,0,weatherlink.com 1.10,2013-01-26 11:37:00,
2013-01-26 03:52:00,47.8,47.0,30.02,SSE,167,2.0,4.0,97,0.00,,,0.00,0,weatherlink.com 1.10,2013-01-26 11:52:00,
2013-01-26 04:07:00,47.9,47.0,30.02,SSE,167,2.0,3.0,97,0.00,,,0.00,0,weatherlink.com 1.10,2013-01-26 12:07:00,
2013-01-26 04:22:00,47.6,47.0,30.02,SSE,167,1.0,4.0,97,0.00,,,0.00,0,weatherlink.com 1.10,2013-01-26 12:22:00,
2013-01-26 04:37:00,46.7,46.0,30.02,SSE,160,2.0,4.0,97,0.00,,,0.00,0,weatherlink.com 1.10,2013-01-26 12:37:00,
2013-01-26 04:52:00,46.6,46.0,30.02,SSE,159,2.0,3.0,97,0.00,,,0.00,0,weatherlink.com 1.10,2013-01-26 12:52:00,
2013-01-26 05:07:00,46.4,46.0,30.02,SSE,159,3.0,3.0,97,0.00,,,0.00,0,weatherlink.com 1.10,2013-01-26 13:07:00,
2013-01-26 05:22:00,46.1,45.0,30.02,SSE,167,3.0,4.0,97,0.00,,,0.00,0,weatherlink.com 1.10,2013-01-26 13:22:00,
2013-01-26 05:37:00,45.8,45.0,30.02,South,174,2.0,3.0,97,0.00,,,0.00,0,weatherlink.com 1.10,2013-01-26 13:37:00,
2013-01-26 05:52:00,46.0,46.0,30.02,South,174,2.0,2.0,98,0.00,,,0.00,0,weatherlink.com 1.10,2013-01-26 13:52:00,
2013-01-26 06:07:00,46.5,46.0,30.02,WNW,292,0.0,4.0,98,0.00,,,0.00,0,weatherlink.com 1.10,2013-01-26 14:07:00,
2013-01-26 06:22:00,46.0,45.0,30.02,WSW,250,3.0,3.0,97,0.00,,,0.00,0,weatherlink.com 1.10,2013-01-26 14:22:00,
2013-01-26 06:37:00,47.2,47.0,30.02,WSW,237,0.0,2.0,98,0.00,,,0.00,0,weatherlink.com 1.10,2013-01-26 14:37:00,
2013-01-26 06:52:00,48.3,48.0,30.02,WSW,237,2.0,2.0,98,0.00,,,0.00,0,weatherlink.com 1.10,2013-01-26 14:52:00,
2013-01-26 07:07:00,49.0,49.0,30.02,West,276,2.0,6.0,98,0.00,,,0.00,0,weatherlink.com 1.10,2013-01-26 15:07:00,
2013-01-26 07:22:00,49.5,49.0,30.02,SW,217,4.0,6.0,98,0.00,,,0.00,5,weatherlink.com 1.10,2013-01-26 15:22:00,
2013-01-26 07:37:00,49.7,49.0,30.02,WSW,253,0.0,5.0,97,0.00,,,0.00,11,weatherlink.com 1.10,2013-01-26 15:37:00,
2013-01-26 07:52:00,49.8,49.0,30.02,WNW,284,1.0,4.0,97,0.00,,,0.00,19,weatherlink.com 1.10,2013-01-26 15:52:00,
2013-01-26 08:07:00,50.0,49.0,30.02,SSW,198,5.0,7.0,97,0.00,,,0.00,14,weatherlink.com 1.10,2013-01-26 16:07:00,
2013-01-26 08:22:00,50.1,49.0,30.03,SSW,213,0.0,5.0,97,0.00,,,0.00,16,weatherlink.com 1.10,2013-01-26 16:22:00,
2013-01-26 08:37:00,50.1,49.0,30.02,SSW,213,0.0,0.0,97,0.00,,,0.00,18,weatherlink.com 1.10,2013-01-26 16:37:00,
2013-01-26 08:52:00,50.4,50.0,30.03,WSW,238,2.0,3.0,98,0.00,,,0.00,18,weatherlink.com 1.10,2013-01-26 16:52:00,
2013-01-26 09:07:00,50.7,50.0,30.03,WSW,248,1.0,4.0,97,0.00,,,0.00,65,weatherlink.com 1.10,2013-01-26 17:07:00,
2013-01-26 09:22:00,50.8,50.0,30.03,West,277,1.0,9.0,97,0.00,,,0.00,74,weatherlink.com 1.10,2013-01-26 17:22:00,
2013-01-26 09:37:00,51.2,50.0,30.03,West,280,6.0,10.0,96,0.00,,,0.00,155,weatherlink.com 1.10,2013-01-26 17:37:00,
2013-01-26 09:52:00,51.4,50.0,30.04,WSW,248,4.0,9.0,95,0.00,,,0.00,313,weatherlink.com 1.10,2013-01-26 17:52:00,
2013-01-26 10:07:00,52.1,50.0,30.04,SW,234,10.0,11.0,93,0.00,,,0.00,506,weatherlink.com 1.10,2013-01-26 18:07:00,
2013-01-26 10:22:00,52.9,50.0,30.04,SW,227,3.0,12.0,89,0.00,,,0.00,517,weatherlink.com 1.10,2013-01-26 18:22:00,
2013-01-26 10:38:00,53.2,49.0,30.04,WSW,242,2.0,10.0,85,0.00,,,0.00,566,weatherlink.com 1.10,2013-01-26 18:38:00,
2013-01-26 10:53:00,54.3,49.0,30.04,West,275,2.0,10.0,81,0.00,,,0.00,564,weatherlink.com 1.10,2013-01-26 18:53:00,
2013-01-26 11:08:00,55.2,48.0,30.04,WSW,248,5.0,8.0,76,0.00,,,0.00,584,weatherlink.com 1.10,2013-01-26 19:08:00,
2013-01-26 11:23:00,54.7,46.0,30.03,WNW,286,6.0,11.0,73,0.00,,,0.00,216,weatherlink.com 1.10,2013-01-26 19:23:00,
2013-01-26 11:38:00,55.8,46.0,30.02,West,273,7.0,10.0,70,0.00,,,0.00,601,weatherlink.com 1.10,2013-01-26 19:38:00,
2013-01-26 11:53:00,56.8,46.0,30.02,West,269,3.0,8.0,67,0.00,,,0.00,654,weatherlink.com 1.10,2013-01-26 19:53:00,
2013-01-26 12:08:00,57.6,46.0,30.02,WSW,244,7.0,9.0,65,0.00,,,0.00,598,weatherlink.com 1.10,2013-01-26 20:08:00,
2013-01-26 12:23:00,57.3,45.0,30.01,SW,233,3.0,11.0,64,0.00,,,0.00,594,weatherlink.com 1.10,2013-01-26 20:23:00,
2013-01-26 12:38:00,57.1,38.0,30.00,NW,319,6.0,13.0,49,0.00,,,0.00,109,weatherlink.com 1.10,2013-01-26 20:38:00,
2013-01-26 12:53:00,57.2,41.0,30.00,WNW,298,8.0,10.0,55,0.00,,,0.00,566,weatherlink.com 1.10,2013-01-26 20:53:00,
2013-01-26 13:08:00,57.7,40.0,30.00,West,273,4.0,12.0,52,0.00,,,0.00,550,weatherlink.com 1.10,2013-01-26 21:08:00,
2013-01-26 13:23:00,58.2,39.0,30.00,WNW,292,7.0,14.0,50,0.00,,,0.00,540,weatherlink.com 1.10,2013-01-26 21:23:00,
2013-01-26 13:38:00,56.8,41.0,29.99,WNW,292,5.0,12.0,56,0.00,,,0.00,519,weatherlink.com 1.10,2013-01-26 21:38:00,
2013-01-26 13:53:00,57.0,43.0,29.99,WNW,282,3.0,13.0,61,0.00,,,0.00,503,weatherlink.com 1.10,2013-01-26 21:53:00,
2013-01-26 14:08:00,56.4,44.0,30.00,West,274,7.0,14.0,63,0.00,,,0.00,464,weatherlink.com 1.10,2013-01-26 22:08:00,
2013-01-26 14:23:00,56.3,43.0,30.00,West,277,8.0,14.0,62,0.00,,,0.00,139,weatherlink.com 1.10,2013-01-26 22:23:00,
2013-01-26 14:38:00,55.8,43.0,30.00,WNW,295,5.0,12.0,62,0.00,,,0.00,274,weatherlink.com 1.10,2013-01-26 22:38:00,
2013-01-26 14:53:00,55.8,44.0,30.01,WNW,296,7.0,10.0,64,0.00,,,0.00,427,weatherlink.com 1.10,2013-01-26 22:53:00,
2013-01-26 15:08:00,55.5,42.0,30.01,West,273,7.0,12.0,62,0.00,,,0.00,320,weatherlink.com 1.10,2013-01-26 23:08:00,
2013-01-26 15:23:00,55.8,42.0,30.01,WNW,296,9.0,15.0,61,0.00,,,0.00,269,weatherlink.com 1.10,2013-01-26 23:23:00,
2013-01-26 15:38:00,55.5,43.0,30.00,WSW,244,6.0,13.0,64,0.00,,,0.00,202,weatherlink.com 1.10,2013-01-26 23:38:00,
2013-01-26 15:53:00,54.6,43.0,30.00,WNW,282,1.0,12.0,64,0.00,,,0.00,162,weatherlink.com 1.10,2013-01-26 23:53:00,
2013-01-26 16:08:00,53.8,42.0,30.00,WSW,246,6.0,13.0,65,0.00,,,0.00,109,weatherlink.com 1.10,2013-01-27 00:08:00,
2013-01-26 16:23:00,53.6,42.0,30.00,West,281,10.0,10.0,66,0.00,,,0.00,60,weatherlink.com 1.10,2013-01-27 00:23:00,
2013-01-26 16:38:00,52.8,42.0,30.00,WNW,300,3.0,11.0,66,0.00,,,0.00,35,weatherlink.com 1.10,2013-01-27 00:38:00,
2013-01-26 16:53:00,52.0,42.0,30.01,NW,305,4.0,7.0,69,0.00,,,0.00,30,weatherlink.com 1.10,2013-01-27 00:53:00,
2013-01-26 17:08:00,51.4,42.0,30.01,WSW,250,1.0,8.0,71,0.00,,,0.00,16,weatherlink.com 1.10,2013-01-27 01:08:00,
2013-01-26 17:23:00,50.6,41.0,30.02,West,272,7.0,9.0,71,0.00,,,0.00,5,weatherlink.com 1.10,2013-01-27 01:23:00,
2013-01-26 17:38:00,49.6,41.0,30.02,NW,304,1.0,7.0,73,0.00,,,0.00,0,weatherlink.com 1.10,2013-01-27 01:38:00,
2013-01-26 17:53:00,49.0,41.0,30.03,SSE,154,2.0,6.0,75,0.00,,,0.00,0,weatherlink.com 1.10,2013-01-27 01:53:00,
2013-01-26 18:08:00,48.6,42.0,30.04,West,266,0.0,3.0,78,0.00,,,0.00,0,weatherlink.com 1.10,2013-01-27 02:08:00,
2013-01-26 18:23:00,48.4,42.0,30.04,West,281,0.0,5.0,78,0.00,,,0.00,0,weatherlink.com 1.10,2013-01-27 02:23:00,
2013-01-26 18:38:00,48.0,42.0,30.04,West,280,1.0,2.0,79,0.00,,,0.00,0,weatherlink.com 1.10,2013-01-27 02:38:00,
2013-01-26 18:53:00,47.7,42.0,30.05,WSW,248,3.0,5.0,79,0.00,,,0.00,0,weatherlink.com 1.10,2013-01-27 02:53:00,
2013-01-26 19:08:00,47.6,41.0,30.05,SW,234,2.0,6.0,79,0.00,,,0.00,0,weatherlink.com 1.10,2013-01-27 03:08:00,
2013-01-26 19:23:00,47.2,41.0,30.05,SW,234,1.0,5.0,80,0.00,,,0.00,0,weatherlink.com 1.10,2013-01-27 03:23:00,
2013-01-26 19:38:00,47.0,41.0,30.05,SW,230,0.0,4.0,79,0.00,,,0.00,0,weatherlink.com 1.10,2013-01-27 03:38:00,
2013-01-26 19:53:00,46.7,41.0,30.06,SW,229,0.0,0.0,80,0.00,,,0.00,0,weatherlink.com 1.10,2013-01-27 03:53:00,
2013-01-26 20:08:00,46.2,40.0,30.06,SW,229,1.0,3.0,80,0.00,,,0.00,0,weatherlink.com 1.10,2013-01-27 04:08:00,
2013-01-26 20:23:00,45.6,39.0,30.06,SW,229,0.0,2.0,79,0.00,,,0.00,0,weatherlink.com 1.10,2013-01-27 04:23:00,
2013-01-26 20:38:00,43.6,38.0,30.06,SW,229,1.0,2.0,82,0.00,,,0.00,0,weatherlink.com 1.10,2013-01-27 04:38:00,
2013-01-26 20:53:00,43.6,39.0,30.06,SW,229,1.0,3.0,84,0.00,,,0.00,0,weatherlink.com 1.10,2013-01-27 04:53:00,
2013-01-26 21:09:00,44.9,39.0,30.07,NNW,334,1.0,3.0,81,0.00,,,0.00,0,weatherlink.com 1.10,2013-01-27 05:09:00,
2013-01-26 21:23:00,44.4,39.0,30.07,NW,321,0.0,3.0,80,0.00,,,0.00,0,weatherlink.com 1.10,2013-01-27 05:23:00,
2013-01-26 21:38:00,44.8,40.0,30.07,North,351,5.0,8.0,82,0.00,,,0.00,0,weatherlink.com 1.10,2013-01-27 05:38:00,
2013-01-26 21:53:00,45.4,40.0,30.07,WNW,292,3.0,7.0,80,0.00,,,0.00,0,weatherlink.com 1.10,2013-01-27 05:53:00,
2013-01-26 22:08:00,45.1,40.0,30.07,NW,323,2.0,7.0,81,0.00,,,0.00,0,weatherlink.com 1.10,2013-01-27 06:08:00,
2013-01-26 22:23:00,44.9,39.0,30.08,WNW,294,0.0,8.0,81,0.00,,,0.00,0,weatherlink.com 1.10,2013-01-27 06:23:00,
2013-01-26 22:38:00,44.6,39.0,30.08,West,275,3.0,6.0,82,0.00,,,0.00,0,weatherlink.com 1.10,2013-01-27 06:38:00,
2013-01-26 22:54:00,44.3,40.0,30.08,WNW,291,1.0,4.0,84,0.00,,,0.00,0,weatherlink.com 1.10,2013-01-27 06:54:00,
2013-01-26 23:09:00,44.3,40.0,30.09,WNW,291,1.0,5.0,84,0.00,,,0.00,0,weatherlink.com 1.10,2013-01-27 07:09:00,
2013-01-26 23:24:00,44.2,40.0,30.09,WNW,286,4.0,8.0,84,0.00,,,0.00,0,weatherlink.com 1.10,2013-01-27 07:24:00,
2013-01-26 23:39:00,44.2,40.0,30.09,West,275,2.0,6.0,85,0.00,,,0.00,0,weatherlink.com 1.10,2013-01-27 07:39:00,
2013-01-26 23:54:00,44.3,40.0,30.09,WNW,298,2.0,7.0,85,0.00,,,0.00,0,weatherlink.com 1.10,2013-01-27 07:54:00,